,,,PA_Meas_PMT16A,,PR_Meas_QMR101_102,,RH_Meas_QMH101,,SR_Meas_QMS101,,TA_Meas_QMH101,,GenWind,,GenWind,
date,time,status,PA,status,PR,status,RH,status,SR,status,TA,status,DirAvg,status,SpdAvg,
2011-04-18, 00:00:04,VALID,1009.71,VALID,0,VALID,104,VALID,0.105969,VALID,24.3547,VALID,81,VALID,0.457812,
2011-04-18, 00:01:04,VALID,1009.7,VALID,0,VALID,104,VALID,0,VALID,24.3566,VALID,81,VALID,0.100781,
2011-04-18, 00:02:04,VALID,1009.72,VALID,0,VALID,104,VALID,0,VALID,24.3547,VALID,81,VALID,0.250391,
2011-04-18, 00:03:04,VALID,1009.72,VALID,0,VALID,104,VALID,0,VALID,24.3352,VALID,81,VALID,0.213672,
2011-04-18, 00:04:04,VALID,1009.71,VALID,0,VALID,104,VALID,0.105969,VALID,24.3352,VALID,81,VALID,0.446875,
2011-04-18, 00:05:04,VALID,1009.69,VALID,0,VALID,104,VALID,0,VALID,24.3566,VALID,81,VALID,0.272656,
2011-04-18, 00:06:04,VALID,1009.71,VALID,0,VALID,104,VALID,0.105969,VALID,24.3352,VALID,81,VALID,0.264062,
2011-04-18, 00:07:04,VALID,1009.69,VALID,0,VALID,104,VALID,0,VALID,24.3566,VALID,72,VALID,0.416016,
2011-04-18, 00:08:04,VALID,1009.68,VALID,0,VALID,104,VALID,0,VALID,24.3352,VALID,72,VALID,0.120703,
2011-04-18, 00:09:04,VALID,1009.68,VALID,0,VALID,104,VALID,0.105969,VALID,24.3352,VALID,72,VALID,0.144141,
2011-04-18, 00:10:04,VALID,1009.66,VALID,0,VALID,104,VALID,0,VALID,24.2981,VALID,72,VALID,0.00351562,
2011-04-18, 00:11:04,VALID,1009.63,VALID,0,VALID,104,VALID,0,VALID,24.3194,VALID,72,VALID,0,
2011-04-18, 00:12:04,VALID,1009.61,VALID,0,VALID,104,VALID,0,VALID,24.2981,VALID,72,VALID,0.21875,
2011-04-18, 00:13:04,VALID,1009.61,VALID,0,VALID,104,VALID,0,VALID,24.2591,VALID,72,VALID,0.202344,
2011-04-18, 00:14:04,VALID,1009.59,VALID,0,VALID,104,VALID,0,VALID,24.2591,VALID,72,VALID,0.0488281,
2011-04-18, 00:15:04,VALID,1009.58,VALID,0,VALID,104,VALID,0,VALID,24.261,VALID,72,VALID,0,
2011-04-18, 00:16:04,VALID,1009.58,VALID,0,VALID,104,VALID,0,VALID,24.2202,VALID,72,VALID,0,
2011-04-18, 00:17:04,VALID,1009.56,VALID,0,VALID,104,VALID,0,VALID,24.2007,VALID,72,VALID,0,
2011-04-18, 00:18:04,VALID,1009.57,VALID,0,VALID,104,VALID,0,VALID,24.2007,VALID,72,VALID,0,
2011-04-18, 00:19:04,VALID,1009.52,VALID,0,VALID,104,VALID,0,VALID,24.1812,VALID,72,VALID,0,
2011-04-18, 00:20:04,VALID,1009.55,VALID,0,VALID,104,VALID,0,VALID,24.1812,VALID,72,VALID,0,
2011-04-18, 00:21:04,VALID,1009.5,VALID,0,VALID,104,VALID,0,VALID,24.183,VALID,72,VALID,0,
2011-04-18, 00:22:04,VALID,1009.54,VALID,0,VALID,104,VALID,0,VALID,24.1422,VALID,72,VALID,0,
2011-04-18, 00:23:04,VALID,1009.54,VALID,0,VALID,104,VALID,0,VALID,24.1227,VALID,72,VALID,0,
2011-04-18, 00:24:04,VALID,1009.53,VALID,0,VALID,104,VALID,0,VALID,24.1032,VALID,72,VALID,0,
2011-04-18, 00:25:04,VALID,1009.53,VALID,0,VALID,104,VALID,0,VALID,24.1032,VALID,72,VALID,0,
2011-04-18, 00:26:04,VALID,1009.52,VALID,0,VALID,104,VALID,0.105969,VALID,24.1032,VALID,72,VALID,0,
2011-04-18, 00:27:04,VALID,1009.5,VALID,0,VALID,104,VALID,0,VALID,24.0819,VALID,72,VALID,0,
2011-04-18, 00:28:04,VALID,1009.48,VALID,0,VALID,104,VALID,0.105969,VALID,24.0819,VALID,72,VALID,0,
2011-04-18, 00:29:04,VALID,1009.46,VALID,0,VALID,104,VALID,0.105969,VALID,24.0819,VALID,72,VALID,0,
2011-04-18, 00:30:04,VALID,1009.48,VALID,0,VALID,104,VALID,0,VALID,24.0837,VALID,72,VALID,0,
2011-04-18, 00:31:04,VALID,1009.49,VALID,0,VALID,104,VALID,0,VALID,24.0819,VALID,72,VALID,0,
2011-04-18, 00:32:04,VALID,1009.48,VALID,0,VALID,104,VALID,0,VALID,24.0819,VALID,72,VALID,0,
2011-04-18, 00:33:04,VALID,1009.46,VALID,0,VALID,104,VALID,0,VALID,24.1032,VALID,72,VALID,0,
2011-04-18, 00:34:04,VALID,1009.49,VALID,0,VALID,104,VALID,0,VALID,24.1032,VALID,72,VALID,0,
2011-04-18, 00:35:04,VALID,1009.47,VALID,0,VALID,104,VALID,0,VALID,24.1032,VALID,72,VALID,0.0832031,
2011-04-18, 00:36:04,VALID,1009.46,VALID,0,VALID,104,VALID,0,VALID,24.0819,VALID,72,VALID,0,
2011-04-18, 00:37:04,VALID,1009.44,VALID,0,VALID,104,VALID,0.105969,VALID,24.1032,VALID,72,VALID,0,
2011-04-18, 00:38:04,VALID,1009.46,VALID,0,VALID,104,VALID,0,VALID,24.0819,VALID,72,VALID,0,
2011-04-18, 00:39:04,VALID,1009.43,VALID,0,VALID,104,VALID,0.105969,VALID,24.0819,VALID,72,VALID,0.257422,
2011-04-18, 00:40:04,VALID,1009.43,VALID,0,VALID,104,VALID,0,VALID,24.0819,VALID,72,VALID,0.0105469,
2011-04-18, 00:41:04,VALID,1009.42,VALID,0,VALID,104,VALID,0,VALID,24.0819,VALID,72,VALID,0,
2011-04-18, 00:42:04,VALID,1009.41,VALID,0,VALID,104,VALID,0,VALID,24.0624,VALID,72,VALID,0,
2011-04-18, 00:43:04,VALID,1009.4,VALID,0,VALID,104,VALID,0,VALID,24.0624,VALID,72,VALID,0,
2011-04-18, 00:44:04,VALID,1009.41,VALID,0,VALID,104,VALID,0,VALID,24.0643,VALID,72,VALID,0,
2011-04-18, 00:45:04,VALID,1009.4,VALID,0,VALID,104,VALID,0,VALID,24.0429,VALID,72,VALID,0,
2011-04-18, 00:46:04,VALID,1009.39,VALID,0,VALID,104,VALID,0,VALID,24.0624,VALID,72,VALID,0,
2011-04-18, 00:47:04,VALID,1009.36,VALID,0,VALID,104,VALID,0,VALID,24.0429,VALID,72,VALID,0,
2011-04-18, 00:48:04,VALID,1009.37,VALID,0,VALID,104,VALID,0,VALID,24.0837,VALID,72,VALID,0,
2011-04-18, 00:49:04,VALID,1009.35,VALID,0,VALID,104,VALID,0,VALID,24.0429,VALID,72,VALID,0,
2011-04-18, 00:50:04,VALID,1009.34,VALID,0,VALID,104,VALID,0,VALID,24.0643,VALID,72,VALID,0,
2011-04-18, 00:51:04,VALID,1009.35,VALID,0,VALID,104,VALID,0,VALID,24.0643,VALID,72,VALID,0,
2011-04-18, 00:52:04,VALID,1009.34,VALID,0,VALID,104,VALID,0,VALID,24.0643,VALID,72,VALID,0,
2011-04-18, 00:53:04,VALID,1009.33,VALID,0,VALID,104,VALID,0,VALID,24.0643,VALID,72,VALID,0,
2011-04-18, 00:54:04,VALID,1009.32,VALID,0,VALID,104,VALID,0,VALID,24.0643,VALID,72,VALID,0,
2011-04-18, 00:55:04,VALID,1009.32,VALID,0,VALID,104,VALID,0.105969,VALID,24.0235,VALID,72,VALID,0,
2011-04-18, 00:56:04,VALID,1009.3,VALID,0,VALID,104,VALID,0,VALID,24.0448,VALID,72,VALID,0,
2011-04-18, 00:57:04,VALID,1009.3,VALID,0,VALID,104,VALID,0,VALID,24.0429,VALID,72,VALID,0,
2011-04-18, 00:58:04,VALID,1009.27,VALID,0,VALID,104,VALID,0,VALID,24.0235,VALID,72,VALID,0,
2011-04-18, 00:59:04,VALID,1009.25,VALID,0,VALID,104,VALID,0,VALID,24.0448,VALID,72,VALID,0,
2011-04-18, 01:00:04,VALID,1009.24,VALID,0,VALID,104,VALID,0,VALID,24.0448,VALID,72,VALID,0,
2011-04-18, 01:01:04,VALID,1009.24,VALID,0,VALID,104,VALID,0,VALID,24.0235,VALID,72,VALID,0,
2011-04-18, 01:02:04,VALID,1009.22,VALID,0,VALID,104,VALID,0,VALID,24.0235,VALID,72,VALID,0,
2011-04-18, 01:03:04,VALID,1009.19,VALID,0,VALID,104,VALID,0,VALID,24.0429,VALID,72,VALID,0,
2011-04-18, 01:04:04,VALID,1009.15,VALID,0,VALID,104,VALID,0,VALID,24.0235,VALID,74,VALID,0.489453,
2011-04-18, 01:05:04,VALID,1009.17,VALID,0,VALID,104,VALID,0,VALID,24.0448,VALID,74,VALID,0.424609,
2011-04-18, 01:06:04,VALID,1009.11,VALID,0,VALID,104,VALID,0,VALID,24.0643,VALID,86,VALID,0.547266,
2011-04-18, 01:07:04,VALID,1009.13,VALID,0,VALID,104,VALID,0,VALID,24.0643,VALID,92,VALID,0.431641,
2011-04-18, 01:08:04,VALID,1009.11,VALID,0,VALID,104,VALID,0,VALID,24.0624,VALID,92,VALID,0.378125,
2011-04-18, 01:09:04,VALID,1009.09,VALID,0,VALID,104,VALID,0,VALID,24.0624,VALID,92,VALID,0.265625,
2011-04-18, 01:10:04,VALID,1009.09,VALID,0,VALID,104,VALID,0,VALID,24.0624,VALID,92,VALID,0.382422,
2011-04-18, 01:11:04,VALID,1009.06,VALID,0,VALID,104,VALID,0,VALID,24.0837,VALID,92,VALID,0.194531,
2011-04-18, 01:12:04,VALID,1009.07,VALID,0,VALID,104,VALID,0,VALID,24.0624,VALID,92,VALID,0.169141,
2011-04-18, 01:13:04,VALID,1009.05,VALID,0,VALID,104,VALID,0,VALID,24.0837,VALID,92,VALID,0.424609,
2011-04-18, 01:14:04,VALID,1009.05,VALID,0,VALID,104,VALID,0,VALID,24.0624,VALID,92,VALID,0.367969,
2011-04-18, 01:15:04,VALID,1009.04,VALID,0,VALID,104,VALID,0,VALID,24.0643,VALID,92,VALID,0,
2011-04-18, 01:16:04,VALID,1009.04,VALID,0,VALID,104,VALID,0,VALID,24.0429,VALID,92,VALID,0.382031,
2011-04-18, 01:17:04,VALID,1009.04,VALID,0,VALID,104,VALID,0,VALID,24.0643,VALID,92,VALID,0.409375,
2011-04-18, 01:18:04,VALID,1009.05,VALID,0,VALID,104,VALID,0,VALID,24.0429,VALID,92,VALID,0.392969,
2011-04-18, 01:19:04,VALID,1009.02,VALID,0,VALID,104,VALID,0,VALID,24.0235,VALID,92,VALID,0.450391,
2011-04-18, 01:20:04,VALID,1009.03,VALID,0,VALID,104,VALID,0,VALID,24.0235,VALID,92,VALID,0.471875,
2011-04-18, 01:21:04,VALID,1009.01,VALID,0,VALID,104,VALID,0,VALID,24.0235,VALID,92,VALID,0.201562,
2011-04-18, 01:22:04,VALID,1008.98,VALID,0,VALID,104,VALID,0,VALID,24.0235,VALID,92,VALID,0,
2011-04-18, 01:23:04,VALID,1008.96,VALID,0,VALID,104,VALID,0,VALID,24.0448,VALID,92,VALID,0,
2011-04-18, 01:24:04,VALID,1008.93,VALID,0,VALID,104,VALID,0,VALID,24.0253,VALID,92,VALID,0,
2011-04-18, 01:25:04,VALID,1008.92,VALID,0,VALID,104,VALID,0,VALID,24.0253,VALID,92,VALID,0.0277344,
2011-04-18, 01:26:04,VALID,1008.86,VALID,0,VALID,104,VALID,0,VALID,24.0448,VALID,92,VALID,0.0523437,
2011-04-18, 01:27:04,VALID,1008.85,VALID,0,VALID,104,VALID,0,VALID,24.004,VALID,91,VALID,0.310547,
2011-04-18, 01:28:04,VALID,1008.79,VALID,0,VALID,104,VALID,0,VALID,24.004,VALID,69,VALID,0.233594,
2011-04-18, 01:29:04,VALID,1008.77,VALID,0,VALID,104,VALID,0,VALID,24.004,VALID,69,VALID,0.375391,
2011-04-18, 01:30:04,VALID,1008.74,VALID,0,VALID,104,VALID,0,VALID,23.9845,VALID,69,VALID,0.319141,
2011-04-18, 01:31:04,VALID,1008.72,VALID,0,VALID,104,VALID,0,VALID,23.9845,VALID,69,VALID,0.354297,
2011-04-18, 01:32:04,VALID,1008.69,VALID,0,VALID,104,VALID,0,VALID,23.965,VALID,69,VALID,0.358594,
2011-04-18, 01:33:04,VALID,1008.71,VALID,0,VALID,104,VALID,0,VALID,23.9668,VALID,69,VALID,0.610937,
2011-04-18, 01:34:04,VALID,1008.66,VALID,0,VALID,104,VALID,0,VALID,23.9455,VALID,69,VALID,0.264453,
2011-04-18, 01:35:04,VALID,1008.68,VALID,0,VALID,104,VALID,0.105969,VALID,23.926,VALID,69,VALID,0.291797,
2011-04-18, 01:36:04,VALID,1008.68,VALID,0,VALID,104,VALID,0,VALID,23.9065,VALID,69,VALID,0.173047,
2011-04-18, 01:37:04,VALID,1008.68,VALID,0,VALID,104,VALID,0,VALID,23.9065,VALID,69,VALID,0.348437,
2011-04-18, 01:38:04,VALID,1008.7,VALID,0,VALID,104,VALID,0.105969,VALID,23.9065,VALID,69,VALID,0.138281,
2011-04-18, 01:39:04,VALID,1008.69,VALID,0,VALID,104,VALID,0,VALID,23.8871,VALID,69,VALID,0,
2011-04-18, 01:40:04,VALID,1008.66,VALID,0,VALID,104,VALID,0.105969,VALID,23.8676,VALID,69,VALID,0,
2011-04-18, 01:41:04,VALID,1008.69,VALID,0,VALID,104,VALID,0.105969,VALID,23.8889,VALID,69,VALID,0,
2011-04-18, 01:42:04,VALID,1008.68,VALID,0,VALID,104,VALID,0.105969,VALID,23.8676,VALID,69,VALID,0,
2011-04-18, 01:43:04,VALID,1008.66,VALID,0,VALID,104,VALID,0.105969,VALID,23.8676,VALID,69,VALID,0,
2011-04-18, 01:44:04,VALID,1008.67,VALID,0,VALID,104,VALID,0.105969,VALID,23.8481,VALID,69,VALID,0,
2011-04-18, 01:45:04,VALID,1008.67,VALID,0,VALID,104,VALID,0.105969,VALID,23.8481,VALID,69,VALID,0.121484,
2011-04-18, 01:46:04,VALID,1008.63,VALID,0,VALID,104,VALID,0.105969,VALID,23.8481,VALID,69,VALID,0,
2011-04-18, 01:47:04,VALID,1008.65,VALID,0,VALID,104,VALID,0,VALID,23.8286,VALID,69,VALID,0,
2011-04-18, 01:48:04,VALID,1008.64,VALID,0,VALID,104,VALID,0.105969,VALID,23.8091,VALID,69,VALID,0,
2011-04-18, 01:49:04,VALID,1008.6,VALID,0,VALID,104,VALID,0.105969,VALID,23.8091,VALID,69,VALID,0,
2011-04-18, 01:50:04,VALID,1008.61,VALID,0,VALID,104,VALID,0.105969,VALID,23.7896,VALID,69,VALID,0,
2011-04-18, 01:51:04,VALID,1008.61,VALID,0,VALID,104,VALID,0.105969,VALID,23.7896,VALID,69,VALID,0,
2011-04-18, 01:52:04,VALID,1008.61,VALID,0,VALID,104,VALID,0.105969,VALID,23.7914,VALID,69,VALID,0,
2011-04-18, 01:53:04,VALID,1008.61,VALID,0,VALID,104,VALID,0.105969,VALID,23.7701,VALID,69,VALID,0,
2011-04-18, 01:54:04,VALID,1008.62,VALID,0,VALID,104,VALID,0.105969,VALID,23.7701,VALID,69,VALID,0,
2011-04-18, 01:55:04,VALID,1008.62,VALID,0,VALID,104,VALID,0.105969,VALID,23.7312,VALID,69,VALID,0,
2011-04-18, 01:56:04,VALID,1008.67,VALID,0,VALID,104,VALID,0.105969,VALID,23.7525,VALID,69,VALID,0,
2011-04-18, 01:57:04,VALID,1008.66,VALID,0,VALID,104,VALID,0.105969,VALID,23.7312,VALID,69,VALID,0,
2011-04-18, 01:58:04,VALID,1008.69,VALID,0,VALID,104,VALID,0.105969,VALID,23.733,VALID,69,VALID,0,
2011-04-18, 01:59:04,VALID,1008.69,VALID,0,VALID,104,VALID,0.105969,VALID,23.7312,VALID,69,VALID,0,
2011-04-18, 02:00:04,VALID,1008.7,VALID,0,VALID,104,VALID,0.105969,VALID,23.7312,VALID,69,VALID,0,
2011-04-18, 02:01:04,VALID,1008.72,VALID,0,VALID,104,VALID,0.105969,VALID,23.7507,VALID,69,VALID,0,
2011-04-18, 02:02:04,VALID,1008.68,VALID,0,VALID,104,VALID,0.105969,VALID,23.7507,VALID,69,VALID,0,
2011-04-18, 02:03:04,VALID,1008.68,VALID,0,VALID,104,VALID,0.105969,VALID,23.7312,VALID,69,VALID,0,
2011-04-18, 02:04:04,VALID,1008.67,VALID,0,VALID,104,VALID,0.105969,VALID,23.7312,VALID,69,VALID,0,
2011-04-18, 02:05:04,VALID,1008.68,VALID,0,VALID,104,VALID,0.105969,VALID,23.7117,VALID,69,VALID,0,
2011-04-18, 02:06:04,VALID,1008.68,VALID,0,VALID,104,VALID,0.105969,VALID,23.733,VALID,69,VALID,0,
2011-04-18, 02:07:04,VALID,1008.66,VALID,0,VALID,104,VALID,0.105969,VALID,23.6922,VALID,69,VALID,0,
2011-04-18, 02:08:04,VALID,1008.67,VALID,0,VALID,104,VALID,0.105969,VALID,23.6922,VALID,69,VALID,0,
2011-04-18, 02:09:04,VALID,1008.65,VALID,0,VALID,104,VALID,0.105969,VALID,23.6904,VALID,69,VALID,0,
2011-04-18, 02:10:04,VALID,1008.64,VALID,0,VALID,104,VALID,0.105969,VALID,23.7117,VALID,69,VALID,0.0921875,
2011-04-18, 02:11:04,VALID,1008.6,VALID,0,VALID,104,VALID,0.105969,VALID,23.7117,VALID,69,VALID,0,
2011-04-18, 02:12:04,VALID,1008.63,VALID,0,VALID,104,VALID,0.105969,VALID,23.6922,VALID,69,VALID,0,
2011-04-18, 02:13:04,VALID,1008.6,VALID,0,VALID,104,VALID,0,VALID,23.6727,VALID,69,VALID,0,
2011-04-18, 02:14:04,VALID,1008.58,VALID,0,VALID,104,VALID,0,VALID,23.694,VALID,69,VALID,0,
2011-04-18, 02:15:04,VALID,1008.59,VALID,0,VALID,104,VALID,0.105969,VALID,23.694,VALID,69,VALID,0,
2011-04-18, 02:16:04,VALID,1008.57,VALID,0,VALID,104,VALID,0,VALID,23.6727,VALID,69,VALID,0,
2011-04-18, 02:17:04,VALID,1008.55,VALID,0,VALID,104,VALID,0.105969,VALID,23.6922,VALID,69,VALID,0,
2011-04-18, 02:18:04,VALID,1008.55,VALID,0,VALID,104,VALID,0.105969,VALID,23.6727,VALID,69,VALID,0,
2011-04-18, 02:19:04,VALID,1008.52,VALID,0,VALID,104,VALID,0.105969,VALID,23.6745,VALID,69,VALID,0,
2011-04-18, 02:20:04,VALID,1008.52,VALID,0,VALID,104,VALID,0.105969,VALID,23.6532,VALID,69,VALID,0,
2011-04-18, 02:21:04,VALID,1008.49,VALID,0,VALID,104,VALID,0.105969,VALID,23.6532,VALID,69,VALID,0,
2011-04-18, 02:22:04,VALID,1008.51,VALID,0,VALID,104,VALID,0.105969,VALID,23.6338,VALID,69,VALID,0,
2011-04-18, 02:23:04,VALID,1008.51,VALID,0,VALID,104,VALID,0.105969,VALID,23.655,VALID,69,VALID,0,
2011-04-18, 02:24:04,VALID,1008.54,VALID,0,VALID,104,VALID,0.105969,VALID,23.655,VALID,69,VALID,0,
2011-04-18, 02:25:04,VALID,1008.57,VALID,0,VALID,104,VALID,0.105969,VALID,23.6338,VALID,69,VALID,0,
2011-04-18, 02:26:04,VALID,1008.57,VALID,0,VALID,104,VALID,0.105969,VALID,23.6338,VALID,69,VALID,0,
2011-04-18, 02:27:04,VALID,1008.59,VALID,0,VALID,104,VALID,0.105969,VALID,23.6532,VALID,69,VALID,0,
2011-04-18, 02:28:04,VALID,1008.56,VALID,0,VALID,104,VALID,0.105969,VALID,23.6532,VALID,69,VALID,0,
2011-04-18, 02:29:04,VALID,1008.54,VALID,0,VALID,104,VALID,0.105969,VALID,23.6745,VALID,69,VALID,0,
2011-04-18, 02:30:04,VALID,1008.55,VALID,0,VALID,104,VALID,0.105969,VALID,23.6532,VALID,69,VALID,0,
2011-04-18, 02:31:04,VALID,1008.55,VALID,0,VALID,104,VALID,0.105969,VALID,23.6338,VALID,69,VALID,0,
2011-04-18, 02:32:04,VALID,1008.54,VALID,0,VALID,104,VALID,0.105969,VALID,23.5948,VALID,69,VALID,0,
2011-04-18, 02:33:04,VALID,1008.56,VALID,0,VALID,104,VALID,0.105969,VALID,23.6356,VALID,69,VALID,0,
2011-04-18, 02:34:04,VALID,1008.58,VALID,0,VALID,104,VALID,0.105969,VALID,23.6143,VALID,69,VALID,0,
2011-04-18, 02:35:04,VALID,1008.56,VALID,0,VALID,104,VALID,0.105969,VALID,23.655,VALID,69,VALID,0,
2011-04-18, 02:36:04,VALID,1008.57,VALID,0,VALID,104,VALID,0.105969,VALID,23.6143,VALID,69,VALID,0,
2011-04-18, 02:37:04,VALID,1008.54,VALID,0,VALID,104,VALID,0.105969,VALID,23.5948,VALID,69,VALID,0.305078,
2011-04-18, 02:38:04,VALID,1008.53,VALID,0,VALID,104,VALID,0,VALID,23.5948,VALID,69,VALID,0.370703,
2011-04-18, 02:39:04,VALID,1008.53,VALID,0,VALID,104,VALID,0.105969,VALID,23.5948,VALID,69,VALID,0.406641,
2011-04-18, 02:40:04,VALID,1008.51,VALID,0,VALID,104,VALID,0.105969,VALID,23.5948,VALID,69,VALID,0.175781,
2011-04-18, 02:41:04,VALID,1008.51,VALID,0,VALID,104,VALID,0.105969,VALID,23.6143,VALID,69,VALID,0.13125,
2011-04-18, 02:42:04,VALID,1008.48,VALID,0,VALID,104,VALID,0.105969,VALID,23.6356,VALID,69,VALID,0,
2011-04-18, 02:43:04,VALID,1008.45,VALID,0,VALID,104,VALID,0,VALID,23.6143,VALID,69,VALID,0,
2011-04-18, 02:44:04,VALID,1008.43,VALID,0,VALID,104,VALID,0,VALID,23.6356,VALID,69,VALID,0.00429688,
2011-04-18, 02:45:04,VALID,1008.41,VALID,0,VALID,104,VALID,0.105969,VALID,23.5948,VALID,69,VALID,0,
2011-04-18, 02:46:04,VALID,1008.42,VALID,0,VALID,104,VALID,0,VALID,23.5753,VALID,69,VALID,0,
2011-04-18, 02:47:04,VALID,1008.42,VALID,0,VALID,104,VALID,0.105969,VALID,23.5948,VALID,69,VALID,0.336719,
2011-04-18, 02:48:04,VALID,1008.42,VALID,0,VALID,104,VALID,0.105969,VALID,23.5948,VALID,69,VALID,0.31875,
2011-04-18, 02:49:04,VALID,1008.4,VALID,0,VALID,104,VALID,0,VALID,23.5753,VALID,101,VALID,0.549609,
2011-04-18, 02:50:04,VALID,1008.41,VALID,0,VALID,104,VALID,0.105969,VALID,23.5753,VALID,114,VALID,0.647656,
2011-04-18, 02:51:04,VALID,1008.42,VALID,0,VALID,104,VALID,0.105969,VALID,23.5753,VALID,120,VALID,0.588281,
2011-04-18, 02:52:04,VALID,1008.42,VALID,0,VALID,104,VALID,0.105969,VALID,23.5966,VALID,122,VALID,0.713281,
2011-04-18, 02:53:04,VALID,1008.39,VALID,0,VALID,104,VALID,0,VALID,23.5948,VALID,122,VALID,0.534375,
2011-04-18, 02:54:04,VALID,1008.38,VALID,0,VALID,104,VALID,0.105969,VALID,23.6143,VALID,122,VALID,0.334766,
2011-04-18, 02:55:04,VALID,1008.37,VALID,0,VALID,104,VALID,0.105969,VALID,23.5948,VALID,122,VALID,0.404687,
2011-04-18, 02:56:04,VALID,1008.37,VALID,0,VALID,104,VALID,0.105969,VALID,23.6143,VALID,119,VALID,0.636719,
2011-04-18, 02:57:04,VALID,1008.4,VALID,0,VALID,104,VALID,0.105969,VALID,23.6143,VALID,114,VALID,0.709766,
2011-04-18, 02:58:04,VALID,1008.36,VALID,0,VALID,104,VALID,0.105969,VALID,23.6143,VALID,119,VALID,0.817578,
2011-04-18, 02:59:04,VALID,1008.37,VALID,0,VALID,104,VALID,0,VALID,23.5948,VALID,131,VALID,0.832422,
2011-04-18, 03:00:04,VALID,1008.38,VALID,0,VALID,104,VALID,0.105969,VALID,23.5948,VALID,134,VALID,0.887109,
2011-04-18, 03:01:04,VALID,1008.38,VALID,0,VALID,104,VALID,0,VALID,23.5753,VALID,140,VALID,0.728906,
2011-04-18, 03:02:04,VALID,1008.4,VALID,0,VALID,104,VALID,0.105969,VALID,23.5753,VALID,140,VALID,0.873438,
2011-04-18, 03:03:04,VALID,1008.42,VALID,0,VALID,104,VALID,0,VALID,23.5771,VALID,140,VALID,0.722266,
2011-04-18, 03:04:04,VALID,1008.4,VALID,0,VALID,104,VALID,0.105969,VALID,23.5558,VALID,139,VALID,0.860547,
2011-04-18, 03:05:04,VALID,1008.4,VALID,0,VALID,104,VALID,0,VALID,23.5771,VALID,139,VALID,0.713281,
2011-04-18, 03:06:04,VALID,1008.39,VALID,0,VALID,104,VALID,0,VALID,23.5558,VALID,139,VALID,0.523047,
2011-04-18, 03:07:04,VALID,1008.42,VALID,0,VALID,104,VALID,0.105969,VALID,23.5558,VALID,139,VALID,0.402734,
2011-04-18, 03:08:04,VALID,1008.41,VALID,0,VALID,104,VALID,0,VALID,23.5363,VALID,139,VALID,0.309375,
2011-04-18, 03:09:04,VALID,1008.41,VALID,0,VALID,104,VALID,0,VALID,23.5576,VALID,130,VALID,0.682422,
2011-04-18, 03:10:04,VALID,1008.4,VALID,0,VALID,104,VALID,0,VALID,23.5771,VALID,119,VALID,0.421484,
2011-04-18, 03:11:04,VALID,1008.4,VALID,0,VALID,104,VALID,0,VALID,23.5558,VALID,126,VALID,0.603906,
2011-04-18, 03:12:04,VALID,1008.37,VALID,0,VALID,104,VALID,0,VALID,23.5558,VALID,126,VALID,0.584375,
2011-04-18, 03:13:04,VALID,1008.38,VALID,0,VALID,104,VALID,0,VALID,23.5363,VALID,126,VALID,0.756641,
2011-04-18, 03:14:04,VALID,1008.37,VALID,0,VALID,104,VALID,0,VALID,23.5576,VALID,116,VALID,0.605078,
2011-04-18, 03:15:04,VALID,1008.37,VALID,0,VALID,104,VALID,0.105969,VALID,23.5576,VALID,116,VALID,0.347266,
2011-04-18, 03:16:04,VALID,1008.35,VALID,0,VALID,104,VALID,0,VALID,23.5576,VALID,116,VALID,0.00585938,
2011-04-18, 03:17:04,VALID,1008.34,VALID,0,VALID,104,VALID,0,VALID,23.5576,VALID,116,VALID,0.60625,
2011-04-18, 03:18:04,VALID,1008.32,VALID,0,VALID,104,VALID,0.105969,VALID,23.5363,VALID,129,VALID,0.390234,
2011-04-18, 03:19:04,VALID,1008.34,VALID,0,VALID,104,VALID,0,VALID,23.5576,VALID,129,VALID,0,
2011-04-18, 03:20:04,VALID,1008.33,VALID,0,VALID,104,VALID,0,VALID,23.5381,VALID,129,VALID,0.0140625,
2011-04-18, 03:21:04,VALID,1008.32,VALID,0,VALID,104,VALID,0.105969,VALID,23.5363,VALID,112,VALID,0.775,
2011-04-18, 03:22:04,VALID,1008.32,VALID,0,VALID,104,VALID,0.105969,VALID,23.5576,VALID,109,VALID,0.438281,
2011-04-18, 03:23:04,VALID,1008.34,VALID,0,VALID,104,VALID,0.105969,VALID,23.5363,VALID,109,VALID,0.389062,
2011-04-18, 03:24:04,VALID,1008.33,VALID,0,VALID,104,VALID,0,VALID,23.5381,VALID,109,VALID,0.367188,
2011-04-18, 03:25:04,VALID,1008.3,VALID,0,VALID,104,VALID,0.105969,VALID,23.5363,VALID,109,VALID,0.283203,
2011-04-18, 03:26:04,VALID,1008.29,VALID,0,VALID,104,VALID,0.105969,VALID,23.5363,VALID,107,VALID,0.629687,
2011-04-18, 03:27:04,VALID,1008.26,VALID,0,VALID,104,VALID,0,VALID,23.5381,VALID,107,VALID,0.758203,
2011-04-18, 03:28:04,VALID,1008.21,VALID,0,VALID,104,VALID,0,VALID,23.5169,VALID,98,VALID,0.632422,
2011-04-18, 03:29:04,VALID,1008.19,VALID,0,VALID,104,VALID,0.105969,VALID,23.5169,VALID,98,VALID,0.234766,
2011-04-18, 03:30:04,VALID,1008.17,VALID,0,VALID,104,VALID,0,VALID,23.5186,VALID,98,VALID,0.209766,
2011-04-18, 03:31:04,VALID,1008.14,VALID,0,VALID,104,VALID,0.105969,VALID,23.5186,VALID,98,VALID,0,
2011-04-18, 03:32:04,VALID,1008.11,VALID,0,VALID,104,VALID,0.105969,VALID,23.4974,VALID,98,VALID,0,
2011-04-18, 03:33:04,VALID,1008.06,VALID,0,VALID,104,VALID,0,VALID,23.4797,VALID,98,VALID,0,
2011-04-18, 03:34:04,VALID,1008.05,VALID,0,VALID,104,VALID,0.105969,VALID,23.4992,VALID,98,VALID,0,
2011-04-18, 03:35:04,VALID,1008.05,VALID,0,VALID,104,VALID,0.105969,VALID,23.4584,VALID,98,VALID,0.0929687,
2011-04-18, 03:36:04,VALID,1008.05,VALID,0,VALID,104,VALID,0,VALID,23.4584,VALID,98,VALID,0.21875,
2011-04-18, 03:37:04,VALID,1008.03,VALID,0,VALID,104,VALID,0.105969,VALID,23.4584,VALID,98,VALID,0.0140625,
2011-04-18, 03:38:04,VALID,1008.05,VALID,0,VALID,104,VALID,0.105969,VALID,23.4584,VALID,98,VALID,0.162891,
2011-04-18, 03:39:04,VALID,1008.04,VALID,0,VALID,104,VALID,0.105969,VALID,23.4389,VALID,98,VALID,0.185937,
2011-04-18, 03:40:04,VALID,1008.05,VALID,0,VALID,104,VALID,0,VALID,23.4407,VALID,98,VALID,0.0046875,
2011-04-18, 03:41:04,VALID,1008.03,VALID,0,VALID,104,VALID,0.105969,VALID,23.4389,VALID,98,VALID,0.03125,
2011-04-18, 03:42:04,VALID,1008.01,VALID,0,VALID,104,VALID,0,VALID,23.4194,VALID,98,VALID,0,
2011-04-18, 03:43:04,VALID,1008.03,VALID,0,VALID,104,VALID,0,VALID,23.4407,VALID,98,VALID,0.0183594,
2011-04-18, 03:44:04,VALID,1008.06,VALID,0,VALID,104,VALID,0.105969,VALID,23.4,VALID,98,VALID,0.0867188,
2011-04-18, 03:45:04,VALID,1008.05,VALID,0,VALID,104,VALID,0,VALID,23.4407,VALID,98,VALID,0.00195313,
2011-04-18, 03:46:04,VALID,1008.03,VALID,0,VALID,104,VALID,0.105969,VALID,23.4407,VALID,99,VALID,0.292578,
2011-04-18, 03:47:04,VALID,1008.04,VALID,0,VALID,104,VALID,0.105969,VALID,23.4,VALID,99,VALID,0.550781,
2011-04-18, 03:48:04,VALID,1008.06,VALID,0,VALID,104,VALID,0,VALID,23.4,VALID,99,VALID,0.189453,
2011-04-18, 03:49:04,VALID,1008.07,VALID,0,VALID,104,VALID,0,VALID,23.4,VALID,99,VALID,0,
2011-04-18, 03:50:04,VALID,1008.04,VALID,0,VALID,104,VALID,0.105969,VALID,23.4,VALID,99,VALID,0.304297,
2011-04-18, 03:51:04,VALID,1008.07,VALID,0,VALID,104,VALID,0,VALID,23.4,VALID,99,VALID,0,
2011-04-18, 03:52:04,VALID,1008.06,VALID,0,VALID,104,VALID,0,VALID,23.4017,VALID,99,VALID,0,
2011-04-18, 03:53:04,VALID,1008.07,VALID,0,VALID,104,VALID,0,VALID,23.4017,VALID,99,VALID,0.00351562,
2011-04-18, 03:54:04,VALID,1008.04,VALID,0,VALID,104,VALID,0,VALID,23.4017,VALID,99,VALID,0.040625,
2011-04-18, 03:55:04,VALID,1008.03,VALID,0,VALID,104,VALID,0.105969,VALID,23.4017,VALID,99,VALID,0,